Volver al catálogo

ASTROSAT

ActivoCienciaLEO
NORAD 40930·PAYLOAD·🇮🇳 India

Lanzado Sep 28, 2015 desde Satish Dhawan Space Centre

Loading…

Próximos Pases (próximas 24 horas)

TLE

ActualizadoSource: Space-Track

Época: Sep 14, 2026, 13:27 UTC

1 40930U 15052A   26257.56100690  .00001440  00000-0  93092-4 0  9994
2 40930   5.9963 231.9715 0008247 233.9343 126.0020 14.82641579593113

Sigue ASTROSAT en tiempo real con AllMySat

Download on the App Store